Flag for Portugal

Past Weather in Porto, Portugal — Yesterday and Last 2 Weeks

Now
55 °F

Partly cloudy.


Feels Like: 55 °F
Forecast: 62 / 54 °F
Wind: 5 mph from South

Location: Porto / Pedras Rubras
Current Time: Oct 23, 2020 at 1:41:36 am
Latest Report: Oct 23, 2020 at 12:30 am
Visibility: N/A
Pressure30.04 "Hg
Humidity: 100%
Dew Point: 55 °F
Location of PortoLocation

Past Weather in Porto — Graph

°F

Porto Temperature Yesterday

Maximum temperature yesterday: 64 °F (at 12:30 pm)
Minimum temperature yesterday: 54 °F (at 7:00 am)
Average temperature yesterday: 59 °F

High & Low Weather Summary for the Past Weeks

 TemperatureHumidityPressure
High75 °F (Oct 10, 2:30 pm)100% (Oct 8, 12:30 am)30.36 "Hg (Oct 8, 12:30 am)
Low45 °F (Oct 15, 4:30 am)29% (Oct 18, 4:30 pm)29.36 "Hg (Oct 20, 5:30 pm)
Average59 °F83%30.04 "Hg
* Reported Oct 8 12:00 am — Oct 23 12:00 am, Porto. Weather by CustomWeather, © 2020

Note: Actual official high and low records may vary slightly from our data, if they occured in-between our weather recording intervals... More about our weather records

Porto Weather History for the Previous 24 Hours

Scroll right to see more
 ConditionsComfort  
Time TempWeatherWind HumidityBarometerVisibility
12:00 am
Fri, Oct 23
55 °FPassing clouds.5 mph100%30.01 "HgN/A
11:30 pm
Thu, Oct 22
55 °FPassing clouds.5 mph100%30.01 "HgN/A
11:00 pm55 °FPassing clouds.5 mph100%30.01 "HgN/A
10:30 pm57 °FPassing clouds.5 mph100%29.98 "HgN/A
10:00 pm57 °FPassing clouds.6 mph94%29.98 "HgN/A
9:30 pm57 °FPassing clouds.5 mph94%29.98 "HgN/A
9:00 pm59 °FPassing clouds.6 mph88%29.98 "HgN/A
8:30 pm59 °FPassing clouds.2 mph82%29.95 "HgN/A
8:00 pm59 °FPassing clouds.5 mph82%29.95 "HgN/A
7:30 pm59 °FPassing clouds.3 mph82%29.95 "HgN/A
7:00 pm59 °FPassing clouds.5 mph88%29.92 "HgN/A
6:30 pm59 °FScattered clouds.5 mph82%29.92 "HgN/A
6:00 pm61 °FScattered clouds.3 mph77%29.92 "HgN/A
5:30 pm61 °FScattered clouds.7 mph77%29.92 "HgN/A
5:00 pm63 °FScattered clouds.6 mph73%29.89 "HgN/A
4:30 pm63 °FScattered clouds.7 mph73%29.89 "HgN/A
4:00 pm63 °FBroken clouds.9 mph68%29.89 "HgN/A
3:30 pm63 °FScattered clouds.9 mph73%29.89 "HgN/A
3:00 pm64 °FScattered clouds.10 mph68%29.89 "HgN/A
2:30 pm64 °FScattered clouds.12 mph73%29.89 "HgN/A
2:00 pm64 °FScattered clouds.14 mph78%29.89 "HgN/A
1:00 pm64 °FScattered clouds.14 mph73%29.89 "HgN/A
12:30 pm64 °FScattered clouds.14 mph73%29.89 "HgN/A
12:00 pm63 °FScattered clouds.14 mph77%29.89 "HgN/A
11:30 am63 °FScattered clouds.15 mph77%29.89 "HgN/A
11:00 am63 °FScattered clouds.13 mph77%29.89 "HgN/A
10:30 am61 °FScattered clouds.13 mph88%29.89 "HgN/A
10:00 am61 °FScattered showers. Scattered clouds.10 mph88%29.86 "HgN/A
9:30 am59 °FPassing clouds.10 mph94%29.86 "HgN/A
9:00 am57 °FPassing clouds.9 mph94%29.86 "HgN/A
8:30 am55 °FScattered clouds.8 mph100%29.83 "HgN/A
8:00 am54 °FScattered clouds.7 mph100%29.83 "HgN/A
7:30 am54 °FPassing clouds.8 mph100%29.83 "HgN/A
7:00 am54 °FPassing clouds.8 mph100%29.80 "HgN/A
6:30 am57 °FPassing clouds.8 mph94%29.80 "HgN/A
6:00 am57 °FPassing clouds.7 mph94%29.80 "HgN/A
5:30 am57 °FPassing clouds.10 mph100%29.80 "HgN/A
5:00 am57 °FPassing clouds.12 mph100%29.80 "HgN/A
4:30 am57 °FLow clouds.12 mph100%29.80 "HgN/A
4:00 am59 °FPassing clouds.12 mph94%29.80 "HgN/A
3:30 am59 °FPartly cloudy.12 mph94%29.80 "HgN/A
3:00 am57 °FPassing clouds.7 mph100%29.80 "HgN/A
2:30 am57 °FPassing clouds.6 mph94%29.80 "HgN/A
2:00 am55 °FPassing clouds.6 mph100%29.80 "HgN/A
1:30 am57 °FPassing clouds.7 mph94%29.80 "HgN/A
1:00 am55 °FPassing clouds.7 mph100%29.80 "HgN/A
Weather by CustomWeather, © 2020

See weather overview